[[{"header":{"parameterUnit":"m.s-1","parameterCategory":1,"la1":30.2991,"la2":30.254,"lo1":-89.0895,"lo2":-89.0444,"dy":0.0017,"dx":0.0017,"nx":28,"ny":28,"refTime":"2025-03-01T03:00:00:Z","depth":0,"parameterNumber":2,"parameterNumberName":"U-component_of_WINDS"},"data":[0,0,0,0,0,0,0,0,0,0,0,0,0,0,0,0,0,0,0,0,0,0,0,0,0,0,0,0,0,0,0,0,0,0,0,0,0,0,0,0,0,0,0,0,0,0,0,0,0,0,0,0,0,0,0,0,0,0,1.332,1.3321,0,1.3367,1.3368,1.3369,1.3383,1.3383,1.3382,1.3382,1.343,1.3431,1.3433,0,0,0,0,0,0,0,0,0,0,0,0,0,1.3242,1.3243,1.332,1.3321,1.3321,1.3367,1.3368,1.3369,1.3383,1.3383,1.3382,1.3382,1.3429,1.3431,1.3433,0,0,0,0,0,0,0,0,0,0,0,0,0,1.3281,1.3244,1.332,1.3334,1.3336,1.3367,1.3368,1.3369,1.3383,1.3383,1.3382,1.3382,1.3429,1.3431,1.3433,1.3454,0,0,1.344,1.3441,0,0,0,0,0,0,0,0,1.3279,1.3284,1.3331,1.3333,1.3335,1.3369,1.3358,1.3397,1.3383,1.3365,1.3382,1.3382,1.341,1.3414,1.3423,1.3456,1.3458,1.344,1.3441,1.3442,1.3443,0,0,0,0,0,0,0,1.3276,1.3282,1.3339,1.3332,1.3334,1.3338,1.3343,1.3365,1.3389,1.3367,1.3368,1.3373,1.3411,1.3421,1.3424,1.3459,1.344,1.3442,1.3443,1.3444,1.3511,1.3511,0,0,0,0,0,0,1.3271,1.328,1.3337,1.334,1.3306,1.334,1.3345,1.3358,1.3389,1.3393,1.3373,1.3374,1.3417,1.3422,1.3426,1.3452,1.3442,1.3444,1.3446,1.3511,1.3511,1.3512,0,0,0,0,0,0,1.3269,1.3276,1.3336,1.331,1.3318,1.3341,1.3356,1.336,1.337,1.3394,1.3398,1.338,1.3417,1.3423,1.3447,1.3454,1.3445,1.3447,1.351,1.3511,1.3511,1.3505,0,0,0,0,0,0,1.3267,1.3275,1.3284,1.331,1.3319,1.3356,1.3356,1.3361,1.3374,1.3375,1.3401,1.3405,1.3417,1.3443,1.3449,1.3457,1.3449,1.3509,1.351,1.3511,1.3505,1.3505,1.3506,0,0,0,0,0,1.3264,1.328,1.3284,1.3291,1.333,1.3356,1.3361,1.3376,1.3374,1.3383,1.3398,1.3404,1.3452,1.3446,1.3452,1.3461,1.3509,1.351,1.3511,1.3504,1.3505,1.3506,0,0,0,0,0,0,1.3253,1.3284,1.3289,1.3313,1.3332,1.3358,1.3369,1.3376,1.3395,1.3395,1.3412,1.3418,1.3441,1.3453,1.3445,1.3483,1.3481,1.3483,1.3474,1.3475,1.3475,1.3472,1.3451,0,0,0,0,0,1.3253,1.3272,1.3298,1.3317,1.3326,1.3346,1.3358,1.3368,1.3387,1.3395,1.3413,1.3431,1.3451,1.3464,1.3483,1.3507,1.3512,1.3516,1.3516,1.3517,1.3519,1.3532,1.3534,1.3515,1.3515,1.3515,0,0,1.3254,1.3273,1.3284,1.3315,1.3331,1.335,1.3353,1.3372,1.3386,1.3398,1.3422,1.3435,1.3457,1.3481,1.3493,1.3493,1.3525,1.3518,1.3518,1.352,1.3533,1.3535,1.3537,1.3515,1.3515,1.3515,0,0,1.3266,1.3282,1.33,1.3316,1.334,1.3353,1.3357,1.3383,1.3392,1.3416,1.3426,1.3442,1.3476,1.3491,1.3503,1.3521,1.3527,1.3527,1.353,1.3543,1.3545,1.3546,1.3552,1.3555,1.3528,1.3528,1.3528,0,1.3264,1.3293,1.3308,1.3328,1.3341,1.3353,1.3371,1.3386,1.3414,1.3423,1.3423,1.3465,1.3481,1.3509,1.3513,1.3522,1.3528,1.3524,1.3543,1.3545,1.3546,1.3553,1.3555,1.3528,1.3528,1.3528,1.3528,0,1.329,1.3309,1.3321,1.3349,1.3364,1.3382,1.34,1.3413,1.3422,1.3435,1.3459,1.3479,1.3502,1.351,1.3518,1.3539,1.3538,1.354,1.3539,1.3548,1.3554,1.3556,1.3528,1.3528,1.3528,1.3528,0,0,1.3295,1.3332,1.3336,1.3348,1.3376,1.3391,1.341,1.3434,1.3444,1.3464,1.348,1.3508,1.3511,1.3525,1.3535,1.3546,1.3559,1.3547,1.3548,1.3548,1.3583,1.3581,1.3584,1.3563,1.3563,1.3564,1.3581,0,1.331,1.3345,1.336,1.3388,1.3407,1.3418,1.3435,1.3453,1.3466,1.3484,1.3498,1.3518,1.3519,1.3528,1.3539,1.3555,1.3566,1.3554,1.3578,1.3579,1.3572,1.3587,1.3585,1.36,1.3584,1.3584,1.3584,0,1.3332,1.3352,1.3382,1.3408,1.3416,1.3431,1.3453,1.347,1.3491,1.3499,1.3515,1.3525,1.3545,1.3542,1.3571,1.3562,1.3573,1.3582,1.3583,1.3586,1.3582,1.359,1.3605,1.3608,1.3588,1.3588,1.3588,0,1.3334,1.3368,1.3391,1.3401,1.3431,1.3441,1.3454,1.3475,1.3488,1.3507,1.3516,1.3538,1.355,1.3566,1.3581,1.3578,1.3608,1.3606,1.3616,1.3615,1.3621,1.3621,1.3639,1.3628,1.3628,1.3628,1.3628,0,1.3349,1.3367,1.3392,1.3405,1.3426,1.3442,1.3462,1.3476,1.3494,1.3511,1.3522,1.3537,1.3556,1.3574,1.3586,1.3607,1.3612,1.362,1.3623,1.3619,1.3618,1.3626,1.3626,1.3629,1.3629,1.3629,1.3629,0,1.3354,1.3371,1.3396,1.3423,1.343,1.3443,1.3466,1.348,1.3493,1.3514,1.352,1.3541,1.3562,1.3579,1.3606,1.3614,1.3637,1.3641,1.363,1.3632,1.364,1.3639,1.3664,1.3668,1.3655,1.3655,1.3655,0,1.3363,1.3377,1.3404,1.3417,1.3429,1.3449,1.3462,1.3479,1.3492,1.3518,1.3528,1.3551,1.3569,1.3603,1.362,1.3642,1.3645,1.3653,1.3649,1.3644,1.3646,1.3645,1.3646,1.3653,1.3653,1.3653,1.3653,0,1.3376,1.3384,1.3403,1.3425,1.3441,1.346,1.3478,1.3487,1.3507,1.3522,1.3544,1.3559,1.3587,1.3609,1.3632,1.3645,1.3653,1.3654,1.3658,1.3654,1.3647,1.3651,1.3632,1.3654,1.3654,1.3654,1.3654,1.3654,1.3383,1.3396,1.3418,1.3439,1.3455,1.3472,1.3486,1.3502,1.352,1.3545,1.3554,1.3577,1.3597,1.3629,1.3642,1.366,1.3661,1.3665,1.3666,1.3667,1.3667,1.3645,1.3664,1.3664,1.3664,1.3664,1.3664,0,1.3397,1.3412,1.3431,1.3457,1.3473,1.3479,1.35,1.3513,1.3533,1.3552,1.357,1.3596,1.3617,1.3637,1.3659,1.3669,1.3673,1.3675,1.3674,1.3677,1.3665,1.366,1.3671,1.3671,1.3671,1.3671,1.3671,1.3671,1.3407,1.3429,1.344,1.347,1.3485,1.3507,1.3519,1.3534,1.355,1.3578,1.3595,1.3608,1.3627,1.3651,1.367,1.3676,1.3683,1.3684,1.369,1.3678,1.3678,1.3677,1.3672,1.3685,1.3685,1.37,1.37,1.37]},{"header":{"parameterUnit":"m.s-1","parameterCategory":1,"la1":30.2991,"la2":30.254,"lo1":-89.0895,"lo2":-89.0444,"dy":0.0017,"dx":0.0017,"nx":28,"ny":28,"refTime":"2025-03-01T03:00:00:Z","depth":0,"parameterNumber":3,"parameterNumberName":"V-component_of_WINDS"},"data":[0,0,0,0,0,0,0,0,0,0,0,0,0,0,0,0,0,0,0,0,0,0,0,0,0,0,0,0,0,0,0,0,0,0,0,0,0,0,0,0,0,0,0,0,0,0,0,0,0,0,0,0,0,0,0,0,0,0,-0.7308,-0.7308,0,-0.7278,-0.7277,-0.7277,-0.7255,-0.7255,-0.7255,-0.7254,-0.7222,-0.7221,-0.7221,0,0,0,0,0,0,0,0,0,0,0,0,0,-0.7347,-0.7347,-0.7308,-0.7308,-0.7308,-0.7278,-0.7277,-0.7277,-0.7255,-0.7255,-0.7254,-0.7254,-0.7222,-0.7222,-0.7221,0,0,0,0,0,0,0,0,0,0,0,0,0,-0.7325,-0.7347,-0.7308,-0.7293,-0.7291,-0.7278,-0.7277,-0.7277,-0.7255,-0.7255,-0.7254,-0.7254,-0.7223,-0.7222,-0.7221,-0.722,0,0,-0.7217,-0.7217,0,0,0,0,0,0,0,0,-0.7326,-0.7323,-0.7296,-0.7294,-0.7292,-0.727,-0.7279,-0.7258,-0.7255,-0.7269,-0.7254,-0.7254,-0.7238,-0.7236,-0.7231,-0.7218,-0.7217,-0.7217,-0.7217,-0.7216,-0.7216,0,0,0,0,0,0,0,-0.7328,-0.7325,-0.7296,-0.7295,-0.7293,-0.7287,-0.7284,-0.7275,-0.7255,-0.7268,-0.7266,-0.7263,-0.7237,-0.7232,-0.723,-0.7216,-0.7217,-0.7216,-0.7216,-0.7215,-0.7201,-0.7201,0,0,0,0,0,0,-0.7332,-0.7326,-0.7297,-0.7295,-0.7309,-0.7287,-0.7283,-0.7277,-0.7255,-0.7252,-0.7263,-0.7262,-0.7234,-0.7231,-0.7228,-0.7226,-0.7216,-0.7215,-0.7215,-0.7201,-0.7201,-0.7201,0,0,0,0,0,0,-0.7333,-0.7329,-0.7298,-0.731,-0.7306,-0.7287,-0.728,-0.7277,-0.7271,-0.7252,-0.7248,-0.7261,-0.7233,-0.723,-0.7222,-0.7224,-0.7215,-0.7214,-0.7201,-0.7201,-0.7201,-0.722,0,0,0,0,0,0,-0.7334,-0.733,-0.7329,-0.731,-0.7305,-0.7293,-0.728,-0.7276,-0.727,-0.7268,-0.7249,-0.7246,-0.7233,-0.7224,-0.7221,-0.7223,-0.7213,-0.72,-0.7201,-0.7201,-0.7219,-0.7221,-0.7223,0,0,0,0,0,-0.7335,-0.7336,-0.733,-0.7326,-0.7304,-0.7293,-0.729,-0.7275,-0.727,-0.7269,-0.7257,-0.7246,-0.7225,-0.7223,-0.722,-0.7221,-0.72,-0.7201,-0.7201,-0.7218,-0.7221,-0.7223,0,0,0,0,0,0,-0.7355,-0.7333,-0.7326,-0.732,-0.7309,-0.7289,-0.7288,-0.7278,-0.7268,-0.7266,-0.7249,-0.7244,-0.7238,-0.7229,-0.7228,-0.7219,-0.7211,-0.7211,-0.7225,-0.7227,-0.7229,-0.7231,-0.7212,0,0,0,0,0,-0.7359,-0.7352,-0.7333,-0.7329,-0.7324,-0.7307,-0.7301,-0.7291,-0.7278,-0.7273,-0.726,-0.7248,-0.7238,-0.7232,-0.7222,-0.7218,-0.7213,-0.7217,-0.7219,-0.7221,-0.7221,-0.7217,-0.7219,-0.7203,-0.7203,-0.7203,0,0,-0.7367,-0.7354,-0.735,-0.7333,-0.7323,-0.7316,-0.7303,-0.7296,-0.729,-0.7272,-0.7264,-0.7254,-0.7239,-0.7233,-0.7229,-0.7225,-0.7224,-0.7221,-0.7223,-0.7222,-0.7218,-0.722,-0.7221,-0.7204,-0.7204,-0.7204,0,0,-0.7377,-0.7366,-0.7362,-0.7353,-0.7337,-0.7326,-0.7325,-0.7307,-0.73,-0.7292,-0.7278,-0.7271,-0.7255,-0.7245,-0.7238,-0.7244,-0.7234,-0.7242,-0.7251,-0.7248,-0.7249,-0.725,-0.7252,-0.7253,-0.7242,-0.7242,-0.7242,0,-0.7388,-0.7376,-0.7361,-0.7355,-0.7348,-0.7332,-0.7328,-0.7319,-0.7301,-0.7297,-0.7292,-0.7271,-0.726,-0.7251,-0.7253,-0.7248,-0.7246,-0.7243,-0.725,-0.7251,-0.7252,-0.7253,-0.7254,-0.7243,-0.7243,-0.7243,-0.7242,0,-0.7391,-0.7383,-0.7382,-0.7365,-0.7358,-0.7353,-0.7337,-0.7331,-0.7322,-0.7311,-0.7303,-0.7289,-0.7276,-0.7273,-0.7264,-0.7263,-0.7261,-0.7253,-0.7245,-0.7254,-0.7256,-0.7256,-0.7244,-0.7244,-0.7244,-0.7243,0,0,-0.7412,-0.7388,-0.7387,-0.738,-0.7362,-0.7356,-0.735,-0.7337,-0.7333,-0.7322,-0.7316,-0.7303,-0.7296,-0.7288,-0.7277,-0.7275,-0.7281,-0.7267,-0.7267,-0.727,-0.7279,-0.7284,-0.7285,-0.7274,-0.7274,-0.7274,-0.728,0,-0.7419,-0.7407,-0.7394,-0.7387,-0.7379,-0.7364,-0.7359,-0.7348,-0.7338,-0.733,-0.7318,-0.7309,-0.7301,-0.7296,-0.7293,-0.7281,-0.7282,-0.728,-0.7268,-0.7268,-0.7272,-0.7286,-0.7292,-0.7297,-0.728,-0.728,-0.728,0,-0.7425,-0.7415,-0.7407,-0.739,-0.7387,-0.7382,-0.737,-0.7363,-0.7349,-0.7342,-0.7333,-0.7322,-0.7315,-0.7308,-0.7298,-0.7297,-0.7291,-0.7284,-0.7284,-0.7282,-0.7275,-0.7284,-0.7299,-0.73,-0.7281,-0.7281,-0.7281,0,-0.7441,-0.7425,-0.7418,-0.7412,-0.7393,-0.739,-0.7381,-0.7368,-0.7361,-0.7351,-0.7346,-0.7335,-0.7328,-0.732,-0.7306,-0.7302,-0.7297,-0.7288,-0.729,-0.7291,-0.7289,-0.729,-0.7303,-0.7287,-0.7287,-0.7287,-0.7287,0,-0.7449,-0.7445,-0.7425,-0.7421,-0.7416,-0.7401,-0.7396,-0.7386,-0.7374,-0.7368,-0.7354,-0.7349,-0.7331,-0.7323,-0.7312,-0.7305,-0.7302,-0.7296,-0.7293,-0.7297,-0.7298,-0.7293,-0.7292,-0.7287,-0.7287,-0.7287,-0.7287,0,-0.7466,-0.7452,-0.7444,-0.7426,-0.7422,-0.7419,-0.7403,-0.7399,-0.7388,-0.738,-0.7377,-0.736,-0.735,-0.7336,-0.7321,-0.7314,-0.7309,-0.7304,-0.7313,-0.7311,-0.7314,-0.7314,-0.7325,-0.7325,-0.7309,-0.7309,-0.7309,0,-0.7472,-0.7469,-0.7451,-0.7446,-0.7438,-0.743,-0.7423,-0.7408,-0.7402,-0.7386,-0.7384,-0.7373,-0.7363,-0.7348,-0.7334,-0.7323,-0.7318,-0.7323,-0.7316,-0.732,-0.7318,-0.7318,-0.7317,-0.7324,-0.7324,-0.7324,-0.7325,0,-0.7485,-0.7478,-0.7469,-0.7458,-0.7451,-0.7441,-0.7431,-0.7427,-0.741,-0.7403,-0.7393,-0.7386,-0.7371,-0.7361,-0.7348,-0.7339,-0.7329,-0.7327,-0.7327,-0.733,-0.7336,-0.7333,-0.7317,-0.7327,-0.7326,-0.7326,-0.7326,-0.7326,-0.7496,-0.7492,-0.7479,-0.7469,-0.746,-0.7451,-0.7446,-0.7435,-0.7426,-0.7413,-0.7405,-0.7395,-0.7382,-0.7364,-0.7356,-0.7348,-0.7343,-0.7343,-0.7343,-0.7343,-0.7344,-0.7337,-0.7345,-0.7345,-0.7345,-0.7345,-0.7345,0,-0.7507,-0.7498,-0.749,-0.7476,-0.7469,-0.746,-0.7449,-0.7443,-0.7434,-0.7423,-0.7414,-0.7403,-0.7392,-0.7378,-0.7367,-0.7363,-0.7358,-0.7361,-0.736,-0.7358,-0.7349,-0.735,-0.7365,-0.7365,-0.7365,-0.7365,-0.7365,-0.7365,-0.7513,-0.7506,-0.7498,-0.7486,-0.7477,-0.7467,-0.7461,-0.7453,-0.7444,-0.7431,-0.7423,-0.7414,-0.7401,-0.7389,-0.7379,-0.7375,-0.7371,-0.7375,-0.737,-0.7361,-0.7359,-0.7357,-0.7358,-0.7375,-0.7375,-0.738,-0.738,-0.738]}]]